Weather History for KLOL - January, 2014

Change the Weather History Date:

Saturday, January 18, 2014

  Actual Average Record
Temperature  
Mean Temperature 30 °F -  
Max Temperature 52 °F 46 °F 65 °F (1971)
Min Temperature 9 °F 18 °F -20 °F (1949)
Degree Days  
Heating Degree Days 34    
Moisture  
Dew Point 13 °F    
Average Humidity 60    
Maximum Humidity 80    
Minimum Humidity 30    
Precipitation  
Precipitation 0.00 in - - ()
Sea Level Pressure  
Sea Level Pressure 30.41 in    
Wind  
Wind Speed 0 mph (NNE)    
Max Wind Speed 5 mph    
Max Gust Speed -    
Visibility 10 miles    
Events      
Averages and records for this station are not official NWS values.
T = Trace of Precipitation, MM = Missing Value Source: NWS Daily Summary

Daily Weather History Graph

Daily Weather History Graph

Search for Another Location

Airport or City:

Trip Planner

Search our weather history database for the weather conditions in past years. The results will help you decide how hot, cold, wet, or windy it might be!

Date:

Astronomy

Jan. 18, 2014 Rise Set
Actual Time 7:13 AM PST 4:56 PM PST
Civil Twilight 6:43 AM PST 5:26 PM PST
Nautical Twilight 6:10 AM PST 5:59 PM PST
Astronomical Twilight 5:37 AM PST 6:32 PM PST
Moon 7:43 PM PST (1/18) 8:15 AM PST (1/18)
Length of Visible Light 10h 43m
Length of Day
9h 43m
Waning Gibbous, 94% of the Moon is Illuminated
Jan 18
Waning Gibbous
Jan 23
Last Quarter
Jan 30
New
Feb 6
First Quarter
Feb 14
Full

Hourly Weather History & Observations

Time (PST) Temp. Windchill Dew Point Humidity Pressure Visibility Wind Dir Wind Speed Gust Speed Precip Events Conditions
12:53 AM 12.9 °F - 6.1 °F 74% 30.41 in 10.0 mi Calm Calm - N/A   Clear
1:53 AM 14.0 °F - 8.1 °F 77% 30.41 in 10.0 mi Calm Calm - N/A   Clear
2:53 AM 16.0 °F - 7.0 °F 68% 30.40 in 10.0 mi Calm Calm - N/A   Clear
3:53 AM 10.0 °F - 3.0 °F 73% 30.40 in 10.0 mi Calm Calm - N/A   Clear
4:53 AM 12.0 °F 5.9 °F 7.0 °F 80% 30.43 in 10.0 mi NNE 3.5 mph - N/A   Clear
5:53 AM 10.0 °F - 3.9 °F 76% 30.46 in 10.0 mi Calm Calm - N/A   Clear
6:53 AM 9.0 °F - 3.9 °F 80% 30.50 in 10.0 mi Calm Calm - N/A   Clear
7:53 AM 10.9 °F - 3.9 °F 73% 30.50 in 10.0 mi Calm Calm - N/A   Clear
8:53 AM 25.0 °F - 15.1 °F 66% 30.49 in 10.0 mi Calm Calm - N/A   Clear
9:53 AM 30.0 °F - 17.1 °F 59% 30.49 in 10.0 mi Calm Calm - N/A   Clear
10:53 AM 37.9 °F - 19.0 °F 47% 30.48 in 10.0 mi Calm Calm - N/A   Clear
11:53 AM 45.0 °F - 21.0 °F 39% 30.42 in 10.0 mi Calm Calm - N/A   Clear
12:53 PM 46.9 °F - 23.0 °F 39% 30.39 in 10.0 mi Calm Calm - N/A   Clear
1:53 PM 48.9 °F - 21.9 °F 35% 30.35 in 10.0 mi Calm Calm - N/A   Clear
2:53 PM 51.1 °F - 21.9 °F 32% 30.33 in 10.0 mi Calm Calm - N/A   Clear
3:53 PM 52.0 °F - 21.0 °F 30% 30.34 in 10.0 mi Calm Calm - N/A   Clear
4:53 PM 46.0 °F - 19.9 °F 35% 30.35 in 10.0 mi Calm Calm - N/A   Clear
5:53 PM 36.0 °F 33.3 °F 19.0 °F 50% 30.38 in 10.0 mi WNW 3.5 mph - N/A   Clear
6:53 PM 30.0 °F - 17.1 °F 59% 30.39 in 10.0 mi Calm Calm - N/A   Clear
7:53 PM 21.9 °F - 12.0 °F 66% 30.40 in 10.0 mi Calm Calm - N/A   Clear
8:53 PM 19.9 °F 13.4 °F 10.9 °F 68% 30.38 in 10.0 mi North 4.6 mph - N/A   Clear
9:53 PM 19.9 °F - 10.0 °F 65% 30.38 in 10.0 mi Calm Calm - N/A   Clear
10:53 PM 19.0 °F - 10.9 °F 71% 30.36 in 10.0 mi Calm Calm - N/A   Clear
11:53 PM 17.1 °F 11.7 °F 10.0 °F 74% 30.35 in 10.0 mi East 3.5 mph - N/A   Clear